[[{"header":{"parameterUnit":"m.s-1","parameterCategory":1,"la1":30.2991,"la2":30.254,"lo1":-89.0895,"lo2":-89.0444,"dy":0.0017,"dx":0.0017,"nx":28,"ny":28,"refTime":"2023-08-20T09:00:00:Z","depth":0,"parameterNumber":2,"parameterNumberName":"U-component_of_WINDS"},"data":[0,0,0,0,0,0,0,0,0,0,0,0,0,0,0,0,0,0,0,0,0,0,0,0,0,0,0,0,0,0,0,0,0,0,0,0,0,0,0,0,0,0,0,0,0,0,0,0,0,0,0,0,0,0,0,0,0,0,-0.4827,-0.4828,0,-0.4878,-0.4878,-0.4879,-0.4928,-0.4928,-0.4929,-0.493,-0.498,-0.4981,-0.4981,0,0,0,0,0,0,0,0,0,0,0,0,0,-0.4772,-0.4772,-0.4827,-0.4828,-0.4828,-0.4878,-0.4878,-0.4879,-0.4928,-0.4928,-0.4929,-0.493,-0.498,-0.4981,-0.4982,0,0,0,0,0,0,0,0,0,0,0,0,0,-0.4806,-0.4773,-0.4827,-0.4858,-0.4862,-0.4878,-0.4878,-0.4879,-0.4927,-0.4928,-0.4929,-0.493,-0.4979,-0.4981,-0.4982,-0.497,0,0,-0.4985,-0.4986,0,0,0,0,0,0,0,0,-0.4804,-0.4808,-0.4853,-0.4856,-0.486,-0.4897,-0.4877,-0.491,-0.4927,-0.4902,-0.493,-0.4931,-0.4952,-0.4955,-0.4963,-0.4972,-0.4974,-0.4985,-0.4986,-0.4986,-0.4987,0,0,0,0,0,0,0,-0.4802,-0.4806,-0.4847,-0.4854,-0.4858,-0.487,-0.4876,-0.4884,-0.4921,-0.4905,-0.4908,-0.4914,-0.4954,-0.4961,-0.4964,-0.4975,-0.4985,-0.4986,-0.4987,-0.4987,-0.4979,-0.4978,0,0,0,0,0,0,-0.4795,-0.4804,-0.4845,-0.4849,-0.4834,-0.487,-0.4877,-0.4884,-0.4921,-0.4928,-0.4913,-0.4916,-0.4959,-0.4963,-0.4966,-0.4956,-0.4986,-0.4987,-0.4988,-0.498,-0.4979,-0.4978,0,0,0,0,0,0,-0.4793,-0.4798,-0.4843,-0.4827,-0.4834,-0.487,-0.4878,-0.4885,-0.4893,-0.4927,-0.4934,-0.4914,-0.496,-0.4964,-0.4969,-0.4958,-0.4988,-0.4989,-0.4981,-0.498,-0.4979,-0.4935,0,0,0,0,0,0,-0.4792,-0.4797,-0.4793,-0.4827,-0.4835,-0.4846,-0.4878,-0.4885,-0.4895,-0.4899,-0.493,-0.4936,-0.4961,-0.4967,-0.497,-0.496,-0.499,-0.4982,-0.4981,-0.4979,-0.4937,-0.4932,-0.4927,0,0,0,0,0,-0.4789,-0.4778,-0.4793,-0.4797,-0.483,-0.4845,-0.4849,-0.4878,-0.4894,-0.489,-0.4913,-0.4935,-0.4959,-0.4967,-0.4971,-0.4961,-0.4983,-0.4981,-0.4979,-0.4939,-0.4933,-0.4928,0,0,0,0,0,0,-0.4741,-0.4783,-0.48,-0.4799,-0.4818,-0.4853,-0.4849,-0.487,-0.4885,-0.4889,-0.4924,-0.493,-0.4931,-0.4947,-0.4955,-0.4953,-0.4974,-0.4973,-0.4943,-0.4937,-0.4932,-0.4929,-0.4991,0,0,0,0,0,-0.4731,-0.4739,-0.4775,-0.4771,-0.478,-0.4813,-0.482,-0.4841,-0.4862,-0.487,-0.4893,-0.4912,-0.4924,-0.4931,-0.4944,-0.4939,-0.4948,-0.4935,-0.493,-0.4926,-0.4924,-0.4925,-0.492,-0.4971,-0.4971,-0.4971,0,0,-0.4708,-0.4732,-0.4735,-0.4762,-0.4779,-0.4787,-0.4819,-0.4826,-0.4832,-0.4871,-0.4877,-0.4895,-0.4918,-0.4919,-0.492,-0.4932,-0.4912,-0.4923,-0.492,-0.4921,-0.4922,-0.4917,-0.4913,-0.497,-0.497,-0.4971,0,0,-0.4673,-0.4691,-0.4691,-0.4708,-0.4734,-0.4756,-0.4756,-0.4788,-0.4801,-0.4808,-0.4838,-0.4846,-0.4865,-0.4881,-0.4892,-0.4864,-0.4886,-0.4867,-0.4841,-0.4841,-0.4837,-0.4834,-0.4825,-0.4821,-0.4865,-0.4865,-0.4865,0,-0.4642,-0.4656,-0.4687,-0.4693,-0.4704,-0.474,-0.474,-0.4755,-0.4783,-0.479,-0.4803,-0.4829,-0.4848,-0.4853,-0.4846,-0.4853,-0.4855,-0.4864,-0.4835,-0.4832,-0.4829,-0.4821,-0.4818,-0.4863,-0.4863,-0.4863,-0.4863,0,-0.4617,-0.4626,-0.4623,-0.4651,-0.4661,-0.4664,-0.4696,-0.4703,-0.4723,-0.4744,-0.4751,-0.4774,-0.4793,-0.4796,-0.4815,-0.4804,-0.4811,-0.4829,-0.4851,-0.4822,-0.4815,-0.4812,-0.4859,-0.486,-0.4861,-0.4861,0,0,-0.4553,-0.4599,-0.4597,-0.4611,-0.4643,-0.465,-0.4655,-0.4674,-0.468,-0.4698,-0.4703,-0.4719,-0.4737,-0.4749,-0.477,-0.477,-0.4747,-0.4788,-0.4789,-0.4781,-0.4738,-0.4725,-0.4721,-0.4762,-0.4761,-0.4761,-0.4737,0,-0.4523,-0.4534,-0.4563,-0.4565,-0.4575,-0.4609,-0.4613,-0.4633,-0.4653,-0.4664,-0.4685,-0.4697,-0.4718,-0.4726,-0.4727,-0.475,-0.4739,-0.4752,-0.4767,-0.4767,-0.4761,-0.4717,-0.4703,-0.4679,-0.4734,-0.4733,-0.4733,0,-0.4491,-0.4508,-0.4511,-0.4544,-0.4549,-0.4552,-0.4573,-0.4582,-0.4606,-0.462,-0.4634,-0.4658,-0.4665,-0.4686,-0.4696,-0.4704,-0.4712,-0.4724,-0.4724,-0.4727,-0.4749,-0.472,-0.4672,-0.4669,-0.4729,-0.4729,-0.473,0,-0.4445,-0.4469,-0.4474,-0.4485,-0.4523,-0.4524,-0.454,-0.4565,-0.4575,-0.4592,-0.4599,-0.4617,-0.4627,-0.464,-0.4669,-0.4681,-0.4676,-0.4699,-0.4689,-0.4688,-0.4687,-0.4687,-0.4641,-0.469,-0.469,-0.469,-0.4691,0,-0.441,-0.4411,-0.4455,-0.4458,-0.446,-0.4493,-0.4494,-0.4513,-0.4535,-0.4543,-0.4573,-0.458,-0.4617,-0.4627,-0.4649,-0.4655,-0.4659,-0.4671,-0.4677,-0.4669,-0.4668,-0.4676,-0.4678,-0.469,-0.469,-0.469,-0.469,0,-0.4359,-0.4389,-0.4397,-0.4433,-0.4441,-0.4442,-0.4472,-0.4477,-0.4498,-0.4508,-0.4512,-0.4546,-0.456,-0.459,-0.4612,-0.4627,-0.4628,-0.4638,-0.462,-0.4624,-0.4613,-0.4614,-0.4571,-0.4568,-0.4618,-0.4618,-0.4617,0,-0.4336,-0.4337,-0.4373,-0.4381,-0.4396,-0.4407,-0.4418,-0.4451,-0.4461,-0.4488,-0.449,-0.4507,-0.4522,-0.4544,-0.457,-0.4588,-0.4599,-0.4583,-0.4602,-0.4594,-0.46,-0.46,-0.4601,-0.4579,-0.4578,-0.4577,-0.4577,0,-0.4291,-0.4305,-0.432,-0.434,-0.4352,-0.4369,-0.4388,-0.4392,-0.4429,-0.4439,-0.4455,-0.4466,-0.449,-0.4507,-0.4528,-0.4544,-0.4567,-0.4571,-0.457,-0.4562,-0.4552,-0.4558,-0.461,-0.4572,-0.4572,-0.4573,-0.4573,-0.4573,-0.4254,-0.4258,-0.4284,-0.4299,-0.4317,-0.4334,-0.434,-0.4363,-0.4377,-0.4399,-0.4417,-0.4431,-0.4456,-0.4487,-0.4502,-0.4514,-0.4525,-0.4523,-0.4522,-0.4522,-0.4519,-0.4549,-0.4517,-0.4518,-0.4518,-0.4518,-0.4518,0,-0.4212,-0.4231,-0.4244,-0.427,-0.4282,-0.4303,-0.4325,-0.4334,-0.4346,-0.4367,-0.4382,-0.44,-0.4417,-0.4445,-0.4464,-0.4468,-0.4479,-0.4472,-0.4472,-0.4476,-0.4507,-0.4507,-0.4463,-0.4463,-0.4463,-0.4463,-0.4463,-0.4463,-0.4191,-0.4199,-0.4217,-0.4234,-0.4252,-0.4267,-0.4278,-0.4294,-0.4311,-0.433,-0.4344,-0.4363,-0.4387,-0.4408,-0.4424,-0.4432,-0.4438,-0.4428,-0.4439,-0.4468,-0.4473,-0.4478,-0.4478,-0.4429,-0.4429,-0.4407,-0.4407,-0.4407]},{"header":{"parameterUnit":"m.s-1","parameterCategory":1,"la1":30.2991,"la2":30.254,"lo1":-89.0895,"lo2":-89.0444,"dy":0.0017,"dx":0.0017,"nx":28,"ny":28,"refTime":"2023-08-20T09:00:00:Z","depth":0,"parameterNumber":3,"parameterNumberName":"V-component_of_WINDS"},"data":[0,0,0,0,0,0,0,0,0,0,0,0,0,0,0,0,0,0,0,0,0,0,0,0,0,0,0,0,0,0,0,0,0,0,0,0,0,0,0,0,0,0,0,0,0,0,0,0,0,0,0,0,0,0,0,0,0,0,3.6716,3.6715,0,3.6629,3.6628,3.6627,3.6524,3.6522,3.652,3.6519,3.6427,3.6426,3.6425,0,0,0,0,0,0,0,0,0,0,0,0,0,3.679,3.679,3.6716,3.6715,3.6714,3.6629,3.6628,3.6627,3.6524,3.6522,3.652,3.6518,3.6427,3.6426,3.6425,0,0,0,0,0,0,0,0,0,0,0,0,0,3.6736,3.6789,3.6716,3.6653,3.6646,3.663,3.6628,3.6627,3.6524,3.6522,3.6519,3.6517,3.6427,3.6426,3.6425,3.6463,0,0,3.642,3.6419,0,0,0,0,0,0,0,0,3.6739,3.6734,3.6663,3.6657,3.6649,3.6585,3.662,3.6572,3.6525,3.657,3.6519,3.6516,3.6481,3.6475,3.6464,3.6459,3.6455,3.642,3.6419,3.6418,3.6418,0,0,0,0,0,0,0,3.6743,3.6737,3.6682,3.6662,3.6654,3.6627,3.6617,3.6611,3.654,3.6566,3.6559,3.655,3.6477,3.6466,3.6461,3.6454,3.642,3.6419,3.6418,3.6417,3.6474,3.6476,0,0,0,0,0,0,3.6757,3.6741,3.6684,3.6679,3.669,3.6628,3.6616,3.6608,3.654,3.6527,3.6552,3.6545,3.6469,3.6463,3.6457,3.6496,3.6418,3.6417,3.6416,3.6471,3.6474,3.6477,0,0,0,0,0,0,3.6759,3.6753,3.6688,3.6708,3.6697,3.6629,3.6621,3.6608,3.6596,3.6529,3.6516,3.6553,3.6467,3.6459,3.6462,3.6491,3.6416,3.6415,3.6468,3.6472,3.6475,3.6575,0,0,0,0,0,0,3.6762,3.6754,3.6769,3.6709,3.6697,3.6696,3.6622,3.6608,3.6594,3.6585,3.6527,3.6515,3.6465,3.6465,3.6461,3.6488,3.6414,3.6465,3.647,3.6474,3.6569,3.6582,3.6593,0,0,0,0,0,3.6765,3.68,3.677,3.6764,3.6714,3.6698,3.669,3.6633,3.6597,3.661,3.6567,3.6517,3.649,3.6466,3.6461,3.6488,3.6463,3.6469,3.6474,3.6564,3.6579,3.6593,0,0,0,0,0,0,3.6865,3.6791,3.6757,3.6775,3.6743,3.668,3.6695,3.6651,3.6628,3.662,3.6549,3.6537,3.6548,3.6518,3.6493,3.6521,3.6469,3.6474,3.6539,3.6553,3.6565,3.6571,3.6413,0,0,0,0,0,3.6889,3.6883,3.6819,3.684,3.6827,3.6764,3.6755,3.6713,3.6677,3.6663,3.662,3.6586,3.657,3.656,3.6542,3.6565,3.655,3.6581,3.6593,3.6603,3.6607,3.6615,3.6628,3.6494,3.6494,3.6494,0,0,3.6939,3.6898,3.6898,3.6859,3.683,3.6824,3.6753,3.675,3.6745,3.6662,3.6662,3.663,3.6587,3.66,3.6604,3.6576,3.6641,3.661,3.6619,3.6617,3.6622,3.6635,3.6646,3.6498,3.6497,3.6497,0,0,3.7026,3.6995,3.7009,3.6981,3.6938,3.6897,3.69,3.6844,3.6819,3.6818,3.6756,3.6748,3.6722,3.6693,3.6676,3.6753,3.6704,3.6749,3.681,3.6819,3.6829,3.6838,3.6863,3.6873,3.6753,3.6754,3.6754,0,3.7092,3.7082,3.7021,3.7022,3.7006,3.6933,3.6945,3.6921,3.6874,3.6864,3.6834,3.6799,3.6765,3.677,3.6789,3.6778,3.6778,3.6754,3.6833,3.6841,3.6848,3.6872,3.6882,3.6759,3.6758,3.6758,3.6757,0,3.7165,3.7159,3.7175,3.7132,3.7118,3.7125,3.7064,3.7058,3.7018,3.6979,3.6978,3.6935,3.6906,3.6904,3.6865,3.6903,3.6887,3.6846,3.6792,3.6868,3.6888,3.6897,3.6767,3.6765,3.6763,3.6762,0,0,3.731,3.7235,3.7241,3.722,3.7168,3.7161,3.7165,3.7137,3.7131,3.7102,3.7101,3.7081,3.7043,3.7023,3.698,3.6988,3.7049,3.6945,3.6943,3.6964,3.7086,3.7115,3.7126,3.7018,3.7019,3.7021,3.7088,0,3.7386,3.7387,3.7333,3.7349,3.7342,3.7272,3.7275,3.7242,3.7206,3.7194,3.7153,3.7139,3.7091,3.7078,3.7084,3.7041,3.7072,3.7035,3.7014,3.7014,3.7025,3.7137,3.7168,3.7234,3.7096,3.7098,3.7099,0,3.7473,3.7449,3.7465,3.7411,3.7406,3.7409,3.7379,3.7369,3.733,3.7303,3.7281,3.7233,3.723,3.7181,3.7176,3.7152,3.7141,3.7118,3.7119,3.7113,3.7059,3.7132,3.7254,3.7263,3.7111,3.711,3.7109,0,3.7575,3.7547,3.7552,3.7537,3.7475,3.7478,3.7453,3.7412,3.7398,3.7372,3.7362,3.7336,3.7321,3.7301,3.7245,3.7215,3.7246,3.7193,3.7221,3.7223,3.7229,3.7229,3.7349,3.7226,3.7226,3.7226,3.7225,0,3.7663,3.7675,3.7597,3.76,3.761,3.7548,3.756,3.7527,3.7492,3.7486,3.7425,3.7421,3.7349,3.7336,3.7293,3.7294,3.7288,3.7265,3.7253,3.7269,3.7272,3.7259,3.7252,3.7228,3.7228,3.7227,3.7227,0,3.7778,3.7726,3.7727,3.7669,3.7654,3.7665,3.7614,3.7613,3.7575,3.7568,3.7563,3.7501,3.7483,3.7426,3.7394,3.7365,3.7378,3.7356,3.7391,3.7383,3.7414,3.7411,3.7528,3.7539,3.7412,3.7413,3.7414,0,3.7836,3.7843,3.7786,3.7779,3.7756,3.7745,3.7731,3.767,3.7658,3.7615,3.7619,3.7597,3.7575,3.7549,3.75,3.7474,3.745,3.7493,3.7446,3.7461,3.7448,3.7447,3.7447,3.7503,3.7504,3.7506,3.7507,0,3.7945,3.7919,3.7902,3.7877,3.7862,3.7839,3.7812,3.7809,3.7741,3.773,3.7711,3.7695,3.7662,3.7639,3.7606,3.7577,3.753,3.7523,3.7527,3.7543,3.7562,3.7549,3.7416,3.7519,3.7518,3.7517,3.7517,3.7516,3.8031,3.8034,3.7994,3.7977,3.7951,3.7927,3.7924,3.7885,3.7868,3.7837,3.7803,3.7788,3.7748,3.7698,3.7674,3.766,3.7634,3.7642,3.7643,3.7646,3.7653,3.7566,3.7654,3.7653,3.7653,3.7652,3.7652,0,3.8134,3.8106,3.8091,3.8055,3.8042,3.8001,3.7969,3.796,3.7948,3.7915,3.7896,3.7874,3.7851,3.7801,3.7774,3.7773,3.775,3.7767,3.7765,3.7759,3.7678,3.7675,3.7786,3.7786,3.7786,3.7786,3.7786,3.7786,3.8186,3.8189,3.8158,3.8147,3.8117,3.8103,3.8088,3.8065,3.8039,3.8017,3.7999,3.7967,3.7927,3.7897,3.7874,3.7859,3.7851,3.7875,3.7854,3.7778,3.7765,3.7753,3.775,3.7874,3.7875,3.7935,3.7936,3.7937]}]]